Location: New Canada
(47.1017°N, 68.5042°W)
Time: 04:26:34
(UTC+00:00)

Tiangong - Visible Passes

Search period start: 28 November 2022 00:00
Search period end: 08 December 2022 00:00
Orbit: 386 x 393 km, 41.5° (Epoch: 27 November)

Date Brightness Start Highest point End Pass type
(mag) Time Alt. Az. Time Alt. Az. Time Alt. Az.
29 Nov 0.6 22:39:15 10° S 22:39:47 11° SSE 22:39:47 11° SSE visible
30 Nov 0.7 23:16:03 10° SW 23:16:49 14° SSW 23:16:49 14° SSW visible
01 Dec 0.0 22:18:31 10° SSW 22:20:37 16° SSE 22:21:29 15° SE visible
02 Dec 0.5 21:21:26 10° S 21:22:40 12° SSE 21:23:53 10° SE visible
02 Dec -0.3 22:56:14 10° SW 22:58:23 24° S 22:58:23 24° S visible
03 Dec -0.2 21:58:23 10° SW 22:00:54 22° SSE 22:02:56 13° ESE visible
03 Dec 1.0 23:34:33 10° WSW 23:35:14 14° WSW 23:35:14 14° WSW visible
04 Dec -0.7 22:36:26 10° WSW 22:39:16 29° S 22:39:45 27° SSE visible
05 Dec -0.4 21:38:23 10° SW 21:41:07 26° S 21:43:52 10° ESE visible
05 Dec 0.2 23:14:53 10° WSW 23:16:34 22° SW 23:16:34 22° SW visible
06 Dec -0.5 22:16:37 10° WSW 22:19:26 29° S 22:21:05 18° SE visible
07 Dec -0.4 21:18:24 10° WSW 21:21:13 29° S 21:24:02 10° ESE visible
07 Dec -0.1 22:55:10 10° WSW 22:57:40 21° SSW 22:57:57 21° S visible
